Location: Bathsheba
(13.2167°N, 59.5167°W)
Time: 22:30:48
(UTC+00:00)

Helios 1A Rocket - Pass Details

Date: 18 September 2020
Orbit: 563 x 586 km, 98.3° (Epoch: 20 October)

Event Time Altitude Azimuth Distance (km) Brightness Sun altitude
Rises 22:45:30 0° 176° (S) 2,760 6.3 -12.7°
Reaches altitude 10° 22:47:40 10° 180° (S) 1,867 5.5 -13.2°
Maximum altitude 22:51:38 55° 259° (WSW) 687 3.6 -14.2°
Drops below altitude 10° 22:55:37 10° 337° (NNW) 1,882 5.9 -15.2°
Sets 22:57:49 0° 342° (NNW) 2,784 6.7 -15.7°
